Voltar ao catálogo

STARLINK-3293

AtivoComunicaçõesVLEO
NORAD 50176·PAYLOAD·🇺🇸 United States

Lançado Dec 18, 2021 de Vandenberg Space Force Base

Loading…

Próximas Passagens (próximas 24 horas)

TLE

AtualizadoSource: CelesTrak SupGP

Época: Sep 14, 2026, 20:30 UTC

1 50176C 21125W   26257.85465278 -.00012945  00000+0 -41640-3 0  2574
2 50176  53.1565 108.1410 0001349  90.1123 162.1837 15.31698989    12

Acompanhe STARLINK-3293 em tempo real com AllMySat

Download on the App Store